Voltar ao catálogo

STARLINK-36118

AtivoComunicaçõesVLEO
NORAD 67009·PAYLOAD·🇺🇸 United States

Lançado Dec 10, 2025 de Vandenberg Space Force Base

Loading…

Próximas Passagens (próximas 24 horas)

TLE

AtualizadoSource: CelesTrak SupGP

Época: Sep 14, 2026, 23:16 UTC

1 67009C 25293G   26257.96993056  .00005114  00000+0  42861-3 0  2573
2 67009  70.0015 337.1638 0003725 269.9959  11.5385 14.98322391    10

Acompanhe STARLINK-36118 em tempo real com AllMySat

Download on the App Store